Torna al catalogo

CZ-6A DEB

AttivoPO
NORAD 60972·DEBRIS·🇨🇳 China

Lanciato Aug 6, 2024 da Taiyuan Satellite Launch Center

Loading…

Prossimi Passaggi (prossime 24 ore)

TLE

AggiornatoSource: Space-Track

Epoca: Sep 14, 2026, 00:25 UTC

1 60972U 24140LX  26257.01789325  .00001160  00000-0  47781-3 0  9990
2 60972  88.9930 263.7154 0029780 265.4732  94.3060 14.26065630107290

Traccia CZ-6A DEB in tempo reale con AllMySat

Download on the App Store